When you browse on this site, cookies collect data to enhance your experience and personalize the content and advertising you see.
Visit our Privacy Policy to learn more. By continuing to use the site, you agree to this use of cookies and data.
  • In Hungary
  • List of Countries
  • For 7 days
  • Water Temperature
  • Satellite Maps
  • Weather Map
  • News
  • Weather Widgets
  • user-avatar
    Login

    Hourly Weather La Esperanza

    Today, 21 July, Sunday

    Time Temperature Precipitation Wind Pressure Humidity
    00:00 +15°C° 0 mm 1 mps 616 mmHg 94%
    01:00 +15°C° 0 mm 1 mps 616 mmHg 94%
    02:00 +15°C° 0 mm 1 mps 616 mmHg 94%
    03:00 +15°C° 0 mm 1 mps 615 mmHg 95%
    04:00 +15°C° 0 mm 1 mps 615 mmHg 95%
    05:00 +15°C° 0 mm 1 mps 615 mmHg 95%
    06:00 +15°C° 0 mm 1 mps 616 mmHg 96%
    07:00 +18°C° 0 mm 1 mps 617 mmHg 88%
    08:00 +19°C° 0 mm 1 mps 618 mmHg 79%
    09:00 +20°C° 0 mm 2 mps 619 mmHg 71%
    10:00 +23°C° 0 mm 2 mps 619 mmHg 64%
    11:00 +24°C° 0 mm 2 mps 619 mmHg 57%
    12:00 +26°C° 0 mm 2 mps 619 mmHg 49%
    13:00 +26°C° 0 mm 2 mps 619 mmHg 48%
    14:00 +27°C° 0 mm 2 mps 619 mmHg 46%
    15:00 +27°C° 0 mm 2 mps 618 mmHg 45%
    16:00 +25°C° 0.3 mm 2 mps 617 mmHg 55%
    17:00 +23°C° 0.3 mm 1 mps 617 mmHg 66%
    18:00 +20°C° 0.3 mm 1 mps 616 mmHg 77%
    19:00 +19°C° 0.1 mm 1 mps 616 mmHg 78%
    20:00 +18°C° 0.1 mm 1 mps 616 mmHg 80%
    21:00 +16°C° 0.1 mm 1 mps 616 mmHg 82%
    22:00 +16°C° 0 mm 1 mps 616 mmHg 84%
    23:00 +15°C° 0 mm 1 mps 616 mmHg 87%

    Tomorrow, 22 July, Monday

    Time Temperature Precipitation Wind Pressure Humidity
    00:00 +15°C° 0 mm 1 mps 616 mmHg 90%
    01:00 +15°C° 0 mm 1 mps 616 mmHg 91%
    02:00 +15°C° 0 mm 1 mps 616 mmHg 93%
    03:00 +15°C° 0 mm 1 mps 616 mmHg 94%
    04:00 +15°C° 0 mm 1 mps 616 mmHg 93%
    05:00 +15°C° 0 mm 1 mps 616 mmHg 92%
    06:00 +15°C° 0 mm 1 mps 616 mmHg 91%
    07:00 +18°C° 0 mm 1 mps 617 mmHg 80%
    08:00 +20°C° 0 mm 1 mps 618 mmHg 68%
    09:00 +22°C° 0 mm 1 mps 619 mmHg 57%
    10:00 +24°C° 0 mm 1 mps 620 mmHg 51%
    11:00 +25°C° 0 mm 1 mps 620 mmHg 46%
    12:00 +26°C° 0 mm 2 mps 620 mmHg 41%
    13:00 +26°C° 0 mm 2 mps 619 mmHg 42%
    14:00 +26°C° 0 mm 2 mps 619 mmHg 42%
    15:00 +26°C° 0 mm 2 mps 618 mmHg 43%
    16:00 +24°C° 0.1 mm 1 mps 618 mmHg 53%
    17:00 +22°C° 0.1 mm 1 mps 617 mmHg 64%
    18:00 +20°C° 0.1 mm 1 mps 617 mmHg 74%
    19:00 +19°C° 0 mm 1 mps 617 mmHg 77%
    20:00 +18°C° 0 mm 1 mps 617 mmHg 80%
    21:00 +15°C° 0 mm 1 mps 617 mmHg 83%
    22:00 +15°C° 0 mm 1 mps 617 mmHg 84%
    23:00 +15°C° 0 mm 1 mps 617 mmHg 86%

    Day after tomorrow, 23 July, Tuesday

    Time Temperature Precipitation Wind Pressure Humidity
    00:00 +15°C° 0 mm 1 mps 617 mmHg 87%
    01:00 +15°C° 0 mm 1 mps 617 mmHg 87%
    02:00 +14°C° 0 mm 1 mps 616 mmHg 87%
    03:00 +14°C° 0 mm 1 mps 616 mmHg 88%
    04:00 +14°C° 0 mm 1 mps 616 mmHg 87%
    05:00 +14°C° 0 mm 1 mps 616 mmHg 85%
    06:00 +14°C° 0 mm 1 mps 616 mmHg 84%
    07:00 +18°C° 0 mm 1 mps 617 mmHg 74%
    08:00 +21°C° 0 mm 1 mps 619 mmHg 64%
    09:00 +23°C° 0 mm 1 mps 620 mmHg 53%
    10:00 +24°C° 0 mm 1 mps 620 mmHg 50%
    11:00 +25°C° 0 mm 1 mps 620 mmHg 46%
    12:00 +26°C° 0 mm 2 mps 620 mmHg 42%
    13:00 +26°C° 0.1 mm 2 mps 620 mmHg 43%
    14:00 +26°C° 0.1 mm 2 mps 619 mmHg 45%
    15:00 +26°C° 0.1 mm 2 mps 618 mmHg 47%
    16:00 +24°C° 0.2 mm 1 mps 618 mmHg 57%
    17:00 +22°C° 0.2 mm 1 mps 617 mmHg 68%
    18:00 +18°C° 0.2 mm 0 mps 617 mmHg 79%
    19:00 +17°C° 0.2 mm 0 mps 617 mmHg 83%
    20:00 +16°C° 0.2 mm 1 mps 617 mmHg 88%
    21:00 +15°C° 0.2 mm 1 mps 617 mmHg 92%
    22:00 +15°C° 0 mm 1 mps 617 mmHg 93%
    23:00 +15°C° 0 mm 1 mps 617 mmHg 93%

    24 July, Wednesday

    Time Temperature Precipitation Wind Pressure Humidity
    00:00 +14°C° 0 mm 1 mps 617 mmHg 93%
    01:00 +14°C° 0 mm 1 mps 616 mmHg 93%
    02:00 +14°C° 0 mm 1 mps 616 mmHg 94%
    03:00 +14°C° 0 mm 1 mps 616 mmHg 94%
    04:00 +14°C° 0 mm 1 mps 616 mmHg 94%
    05:00 +14°C° 0 mm 1 mps 616 mmHg 94%
    06:00 +14°C° 0 mm 1 mps 616 mmHg 94%
    07:00 +16°C° 0 mm 1 mps 617 mmHg 85%
    08:00 +20°C° 0 mm 1 mps 619 mmHg 75%
    09:00 +22°C° 0 mm 1 mps 620 mmHg 65%
    10:00 +23°C° 0 mm 2 mps 620 mmHg 59%
    11:00 +25°C° 0 mm 2 mps 620 mmHg 54%
    12:00 +26°C° 0 mm 2 mps 620 mmHg 48%
    13:00 +25°C° 0.2 mm 2 mps 619 mmHg 51%
    14:00 +25°C° 0.2 mm 2 mps 618 mmHg 54%
    15:00 +25°C° 0.2 mm 2 mps 618 mmHg 57%
    16:00 +23°C° 0.3 mm 1 mps 617 mmHg 66%
    17:00 +21°C° 0.3 mm 1 mps 617 mmHg 74%
    18:00 +20°C° 0.3 mm 1 mps 616 mmHg 83%
    19:00 +19°C° 0.1 mm 1 mps 616 mmHg 87%
    20:00 +16°C° 0.1 mm 1 mps 616 mmHg 91%
    21:00 +15°C° 0.1 mm 1 mps 616 mmHg 95%
    22:00 +15°C° 0 mm 1 mps 616 mmHg 96%
    23:00 +15°C° 0 mm 1 mps 616 mmHg 96%

    25 July, Thursday

    Time Temperature Precipitation Wind Pressure Humidity
    00:00 +15°C° 0 mm 1 mps 616 mmHg 96%
    01:00 +15°C° 0.2 mm 1 mps 616 mmHg 96%
    02:00 +15°C° 0.2 mm 1 mps 615 mmHg 96%
    03:00 +15°C° 0.2 mm 1 mps 615 mmHg 96%
    04:00 +15°C° 0.3 mm 1 mps 615 mmHg 96%
    05:00 +15°C° 0.3 mm 1 mps 616 mmHg 96%
    06:00 +14°C° 0.3 mm 1 mps 616 mmHg 96%
    07:00 +16°C° 0.3 mm 1 mps 617 mmHg 90%
    08:00 +19°C° 0.3 mm 1 mps 618 mmHg 85%
    09:00 +21°C° 0.3 mm 1 mps 619 mmHg 79%
    10:00 +22°C° 0.2 mm 1 mps 619 mmHg 72%
    11:00 +23°C° 0.2 mm 1 mps 619 mmHg 64%
    12:00 +25°C° 0.2 mm 2 mps 619 mmHg 56%
    13:00 +24°C° 1 mm 2 mps 619 mmHg 61%
    14:00 +23°C° 1 mm 1 mps 618 mmHg 66%
    15:00 +22°C° 1 mm 1 mps 617 mmHg 72%
    16:00 +21°C° 0.4 mm 1 mps 617 mmHg 75%
    17:00 +20°C° 0.4 mm 1 mps 617 mmHg 79%
    18:00 +19°C° 0.4 mm 1 mps 616 mmHg 83%
    19:00 +18°C° 0 mm 1 mps 616 mmHg 84%
    20:00 +16°C° 0 mm 1 mps 616 mmHg 86%
    21:00 +15°C° 0 mm 1 mps 616 mmHg 88%
    22:00 +14°C° 0 mm 1 mps 616 mmHg 88%
    23:00 +14°C° 0 mm 1 mps 616 mmHg 89%

    26 July, Friday

    Time Temperature Precipitation Wind Pressure Humidity
    00:00 +14°C° 0 mm 1 mps 616 mmHg 90%
    01:00 +14°C° 0 mm 1 mps 616 mmHg 91%
    02:00 +13°C° 0 mm 1 mps 615 mmHg 91%
    03:00 +13°C° 0 mm 1 mps 615 mmHg 92%
    04:00 +13°C° 0 mm 1 mps 615 mmHg 92%
    05:00 +13°C° 0 mm 1 mps 615 mmHg 92%
    06:00 +13°C° 0 mm 1 mps 615 mmHg 92%
    07:00 +15°C° 0 mm 2 mps 617 mmHg 79%
    08:00 +18°C° 0 mm 2 mps 618 mmHg 66%
    09:00 +20°C° 0 mm 2 mps 619 mmHg 53%
    10:00 +21°C° 0 mm 2 mps 619 mmHg 48%
    11:00 +22°C° 0 mm 3 mps 619 mmHg 44%
    12:00 +24°C° 0 mm 3 mps 620 mmHg 39%
    13:00 +25°C° 0 mm 3 mps 619 mmHg 40%
    14:00 +25°C° 0 mm 3 mps 619 mmHg 41%
    15:00 +25°C° 0 mm 3 mps 618 mmHg 42%
    16:00 +23°C° 0 mm 2 mps 618 mmHg 53%
    17:00 +20°C° 0 mm 2 mps 617 mmHg 63%
    18:00 +19°C° 0 mm 1 mps 617 mmHg 74%
    19:00 +18°C° 0.1 mm 1 mps 617 mmHg 78%
    20:00 +16°C° 0.1 mm 1 mps 617 mmHg 83%
    21:00 +15°C° 0.1 mm 1 mps 617 mmHg 87%
    22:00 +14°C° 0 mm 1 mps 617 mmHg 89%
    23:00 +14°C° 0 mm 1 mps 617 mmHg 90%
    Show more